EW9665 Weather Reports


time (UTC)temp
F
wind
direction
speed
knots
gust
knots
rain 1hr
in
rain 24hr
in
rain mn
in
humidity
%
barometer
mb
20260506194528 48 0 0.0 2.6 0.00 0.31 0.18 82 1013.0
20260506194017 48 0 0.0 2.6 0.00 0.31 0.18 81 1013.0
20260506193515 49 353 0.0 2.6 0.00 0.31 0.18 81 1012.9
20260506193031 49 353 0.0 3.5 0.00 0.31 0.18 81 1012.8
20260506192515 49 356 0.0 3.5 0.00 0.31 0.18 81 1012.7
20260506192017 50 0 0.0 1.7 0.00 0.31 0.18 80 1012.6
20260506191533 50 0 0.0 1.7 0.00 0.31 0.18 79 1012.5
20260506191013 50 0 0.0 1.7 0.00 0.31 0.18 79 1012.5
20260506190516 50 0 0.0 2.6 0.00 0.31 0.18 78 1012.4
20260506190031 50 0 0.0 6.1 0.00 0.31 0.18 77 1012.4
20260506185515 50 6 0.0 6.1 0.00 0.31 0.18 77 1012.3
20260506185017 51 43 0.9 4.3 0.00 0.31 0.18 77 1012.3
20260506184533 51 29 0.9 3.5 0.00 0.31 0.18 77 1012.2
20260506184015 51 0 0.0 3.5 0.00 0.31 0.18 77 1012.1
20260506183513 51 0 0.9 3.5 0.00 0.31 0.18 76 1012.2
20260506183032 51 23 0.9 3.5 0.00 0.31 0.18 76 1012.1
20260506182515 52 58 0.9 4.3 0.00 0.31 0.18 76 1012.0
20260506182014 52 78 0.9 5.2 0.00 0.31 0.18 76 1012.0
20260506181532 52 48 0.9 5.2 0.00 0.31 0.18 76 1011.9
20260506181016 52 71 1.7 5.2 0.00 0.31 0.18 77 1011.8
20260506180516 53 0 0.9 4.3 0.00 0.31 0.18 76 1011.7
20260506180038 53 38 0.9 7.0 0.00 0.31 0.18 76 1011.6
20260506175516 53 67 0.9 7.0 0.00 0.31 0.18 77 1011.5
20260506175017 53 0 0.9 5.2 0.00 0.31 0.18 78 1011.5
20260506174533 54 33 1.7 4.3 0.00 0.31 0.18 78 1011.4
20260506174013 54 0 0.0 2.6 0.00 0.31 0.18 78 1011.4
20260506173515 54 18 0.0 4.3 0.00 0.31 0.18 78 1011.3
20260506173031 54 0 0.9 5.2 0.00 0.31 0.18 77 1011.3
20260506172515 54 0 0.9 6.1 0.00 0.31 0.18 77 1011.2
20260506172013 54 40 0.9 6.1 0.00 0.31 0.18 77 1011.2
20260506171539 54 66 0.9 6.1 0.00 0.31 0.18 77 1011.2
20260506171015 54 0 0.9 6.1 0.00 0.31 0.18 78 1011.2
20260506170517 54 58 0.9 6.1 0.00 0.31 0.18 79 1011.1
20260506170027 54 0 0.0 2.6 0.00 0.31 0.18 79 1011.1
20260506165516 54 0 0.0 2.6 0.00 0.31 0.18 79 1011.0
20260506165015 54 326 0.0 4.3 0.00 0.31 0.18 79 1011.0
20260506164531 54 325 0.9 4.3 0.00 0.31 0.18 79 1010.9
20260506164013 54 325 1.7 3.5 0.00 0.31 0.18 78 1010.9
20260506163517 54 316 1.7 5.2 0.00 0.31 0.18 79 1010.9
20260506163035 54 335 1.7 5.2 0.00 0.31 0.18 78 1010.9
20260506162513 55 339 1.7 4.3 0.00 0.31 0.18 78 1010.8
20260506162014 55 344 0.9 4.3 0.00 0.31 0.18 78 1010.8
20260506161532 55 0 0.9 5.2 0.00 0.31 0.18 79 1010.8
20260506161013 55 0 0.9 5.2 0.00 0.31 0.18 77 1010.8
20260506160515 55 352 0.0 6.1 0.00 0.31 0.18 78 1010.9
20260506160032 55 0 0.0 6.1 0.00 0.31 0.18 77 1010.8
20260506155512 55 319 2.6 7.0 0.00 0.31 0.18 78 1010.9
20260506155016 55 341 0.9 7.0 0.00 0.31 0.18 78 1010.8
20260506154533 55 349 1.7 7.8 0.00 0.31 0.18 78 1010.8
20260506154012 55 331 3.5 7.8 0.00 0.31 0.18 78 1010.7
20260506153513 55 356 1.7 6.1 0.00 0.31 0.18 79 1010.6
20260506153031 55 313 2.6 6.1 0.00 0.31 0.18 79 1010.6
20260506152520 55 334 1.7 6.1 0.00 0.31 0.18 82 1010.7
20260506152014 55 0 0.9 6.1 0.00 0.31 0.18 82 1010.6
20260506151533 54 291 0.9 6.1 0.00 0.31 0.18 82 1010.6
20260506151014 54 0 0.0 0.0 0.00 0.31 0.18 84 1010.7
20260506150515 54 0 0.0 0.0 0.00 0.31 0.18 84 1010.6
20260506150032 53 0 0.0 0.0 0.00 0.31 0.18 84 1010.6
20260506145515 53 0 0.0 0.0 0.00 0.31 0.18 84 1010.6
20260506145012 53 0 0.0 0.0 0.00 0.31 0.18 84 1010.7
20260506144530 53 0 0.0 0.0 0.00 0.31 0.18 84 1010.7
20260506144013 53 0 0.0 0.0 0.00 0.31 0.18 85 1010.6
20260506143514 53 0 0.0 0.0 0.00 0.31 0.18 86 1010.7
20260506143028 53 0 0.0 0.0 0.00 0.31 0.18 86 1010.8
20260506142515 53 0 0.0 0.0 0.00 0.31 0.18 85 1010.8
20260506142015 53 0 0.0 0.0 0.00 0.31 0.18 85 1010.8
20260506141530 53 0 0.0 1.7 0.00 0.31 0.18 85 1010.7
20260506141014 53 0 0.0 2.6 0.00 0.31 0.18 86 1010.8
20260506140513 53 0 0.0 5.2 0.00 0.31 0.18 85 1010.8
20260506140034 53 333 0.9 5.2 0.00 0.31 0.18 85 1010.7
20260506135513 53 333 1.7 5.2 0.00 0.31 0.18 85 1010.9
20260506135013 53 305 0.9 3.5 0.00 0.31 0.18 85 1010.8
20260506134533 53 299 0.9 6.1 0.00 0.31 0.18 86 1010.8
20260506134014 53 293 1.7 6.1 0.00 0.31 0.18 86 1010.8
20260506133515 53 300 1.7 5.2 0.00 0.31 0.18 87 1010.8
20260506133031 53 309 1.7 5.2 0.00 0.31 0.18 89 1010.8
20260506132516 52 309 0.0 3.5 0.00 0.31 0.18 89 1010.7
20260506132012 52 308 1.7 3.5 0.00 0.31 0.18 89 1010.9
20260506131534 52 308 1.7 3.5 0.00 0.31 0.18 90 1010.8
20260506131016 52 0 0.0 4.3 0.00 0.31 0.18 91 1010.8
20260506130517 52 0 0.9 4.3 0.00 0.31 0.18 91 1010.8
20260506130030 52 310 0.9 4.3 0.00 0.31 0.18 92 1010.7
20260506125515 52 318 1.7 4.3 0.00 0.31 0.18 92 1010.7
20260506125016 52 280 0.0 4.3 0.00 0.31 0.18 92 1010.6
20260506124533 52 264 1.7 4.3 0.00 0.31 0.18 92 1010.6
20260506124013 52 314 1.7 5.2 0.00 0.31 0.18 92 1010.6
20260506123515 52 289 0.9 5.2 0.00 0.31 0.18 93 1010.5
20260506123029 51 320 1.7 3.5 0.00 0.31 0.18 93 1010.6
20260506122518 51 325 0.9 4.3 0.00 0.31 0.18 93 1010.4
20260506122018 51 326 0.9 4.3 0.00 0.31 0.18 93 1010.6
20260506121534 51 328 0.9 4.3 0.00 0.31 0.18 94 1010.6
20260506121017 51 0 0.9 4.3 0.00 0.31 0.18 94 1010.5
20260506120517 51 0 0.0 5.2 0.00 0.31 0.18 94 1010.6
20260506120039 51 339 1.7 5.2 0.00 0.31 0.18 94 1010.4
20260506115516 51 335 0.9 7.8 0.00 0.31 0.18 95 1010.5
20260506115017 51 0 1.7 7.8 0.00 0.31 0.18 95 1010.4
20260506114538 51 326 2.6 7.8 0.00 0.31 0.18 95 1010.4
20260506114015 51 0 0.9 4.3 0.00 0.31 0.18 95 1010.4
20260506113519 51 0 0.0 5.2 0.00 0.31 0.18 95 1010.5
20260506113032 50 331 0.9 5.2 0.00 0.31 0.18 95 1010.4
20260506112519 50 326 0.0 6.1 0.00 0.31 0.18 95 1010.5
20260506112018 50 336 0.9 7.0 0.00 0.31 0.18 95 1010.4
20260506111529 50 0 1.7 7.0 0.00 0.31 0.18 95 1010.5
20260506111017 50 345 1.7 7.0 0.00 0.31 0.18 95 1010.5
20260506110519 50 52 0.0 3.5 0.00 0.31 0.18 96 1010.4
20260506110034 50 0 0.0 4.3 0.00 0.31 0.18 96 1010.4
20260506105519 50 0 0.0 4.3 0.00 0.32 0.18 96 1010.4
20260506105017 50 0 0.0 3.5 0.00 0.32 0.18 96 1010.6
20260506104534 50 0 0.0 0.9 0.00 0.32 0.18 95 1010.6
20260506104016 50 0 0.0 2.6 0.00 0.32 0.18 96 1010.7
20260506103517 49 0 0.0 2.6 0.00 0.32 0.18 96 1010.7
20260506103033 49 0 0.0 2.6 0.00 0.32 0.18 96 1010.6
20260506102518 49 0 0.0 3.5 0.00 0.32 0.18 95 1010.6
20260506102016 49 349 0.0 4.3 0.00 0.32 0.18 95 1010.6
20260506101530 49 0 0.9 4.3 0.00 0.32 0.18 95 1010.6
20260506101015 49 341 0.9 5.2 0.00 0.32 0.18 96 1010.6
20260506100515 48 0 0.0 5.2 0.00 0.32 0.18 96 1010.5
20260506100029 48 0 0.0 4.3 0.00 0.32 0.18 95 1010.4
20260506095516 48 0 0.0 4.3 0.00 0.32 0.18 95 1010.4
20260506095016 48 0 0.0 6.1 0.00 0.32 0.18 95 1010.3
20260506094529 48 0 0.9 6.1 0.00 0.32 0.18 95 1010.4
20260506094015 48 0 0.9 6.1 0.00 0.32 0.18 95 1010.3
20260506093520 48 0 0.9 6.1 0.00 0.32 0.18 95 1010.3
20260506093032 47 0 0.9 5.2 0.00 0.32 0.18 95 1010.3
20260506092520 47 345 0.0 6.1 0.00 0.32 0.18 95 1010.2
20260506092016 47 0 1.7 6.1 0.00 0.32 0.18 95 1010.2
20260506091531 47 331 0.0 5.2 0.00 0.32 0.18 95 1010.1
20260506091016 47 0 0.0 5.2 0.00 0.32 0.18 95 1010.2
20260506090515 47 0 0.0 3.5 0.00 0.32 0.18 95 1010.0
20260506090029 47 0 0.0 7.0 0.00 0.32 0.18 95 1010.1
20260506085515 47 0 0.9 7.8 0.00 0.32 0.18 95 1010.0
20260506085016 47 0 0.9 7.8 0.01 0.32 0.18 95 1009.9
20260506084539 47 0 1.7 7.8 0.01 0.32 0.18 95 1009.8
20260506084015 47 0 0.0 10.4 0.01 0.32 0.18 95 1009.9
20260506083516 47 48 2.6 10.4 0.01 0.32 0.18 95 1009.8
20260506083030 47 0 0.9 7.0 0.01 0.32 0.18 95 1009.8
20260506082515 47 0 1.7 7.8 0.01 0.32 0.18 95 1009.7
20260506082018 47 348 0.9 8.7 0.01 0.32 0.18 95 1009.7
20260506081533 47 2 1.7 8.7 0.01 0.32 0.18 95 1009.6
20260506081015 47 324 2.6 8.7 0.01 0.32 0.18 95 1009.6
20260506080516 47 15 1.7 8.7 0.01 0.32 0.18 95 1009.6
20260506073517 46 1 1.7 7.8 0.00 0.31 0.17 95 1009.5
20260506073029 46 62 0.9 7.0 0.00 0.31 0.17 95 1009.4
20260506072514 46 18 1.7 6.1 0.00 0.31 0.17 95 1009.5
20260506072016 46 348 0.9 5.2 0.01 0.31 0.17 95 1009.4
20260506071532 46 0 0.9 6.1 0.01 0.31 0.17 95 1009.4
20260506071017 46 322 0.9 7.8 0.01 0.31 0.17 95 1009.5
20260506070517 46 0 2.6 7.8 0.01 0.31 0.17 95 1009.4
20260506062515 46 0 0.0 5.2 0.01 0.31 0.17 95 1009.2
20260506062016 46 335 0.9 5.2 0.00 0.30 0.16 95 1009.1
20260506061538 46 335 0.0 6.1 0.00 0.30 0.16 95 1009.2
20260506061019 46 334 0.9 6.1 0.00 0.30 0.16 95 1009.2
20260506060517 46 349 1.7 6.1 0.01 0.30 0.16 95 1009.2
20260506051014 45 347 1.7 7.8 0.04 0.30 0.16 95 1009.2
20260506050514 45 339 1.7 7.8 0.03 0.29 0.15 95 1009.1
20260506045017 45 0 0.9 4.3 0.03 0.29 0.15 95 1009.1
20260506044537 45 0 0.9 5.2 0.02 0.28 0.14 95 1009.1
20260506044016 45 337 0.9 5.2 0.02 0.28 0.14 95 1009.0
20260506043516 45 0 1.7 6.1 0.01 0.27 0.13 95 1009.1
20260506043031 45 0 1.7 6.1 0.01 0.27 0.13 95 1008.9
20260506042519 45 330 0.9 4.3 0.02 0.27 0.13 95 1009.0
20260506042015 45 326 0.9 4.3 0.02 0.27 0.13 95 1009.1
20260506041533 45 329 0.9 6.1 0.01 0.26 0.12 95 1009.1
20260506041016 45 332 1.7 6.1 0.01 0.26 0.12 95 1009.0
20260506040518 45 0 0.9 5.2 0.01 0.26 0.12 95 1009.0
20260506040033 45 337 0.0 5.2 0.01 0.26 0.12 95 1009.0
20260506035517 46 0 0.9 6.1 0.01 0.26 0.12 95 1009.1
20260506035016 46 354 0.9 6.1 0.01 0.26 0.12 95 1009.0
20260506034532 46 0 0.0 5.2 0.01 0.26 0.12 95 1009.1
20260506034015 46 0 0.0 6.1 0.01 0.26 0.12 95 1009.1
20260506033517 46 0 0.0 7.0 0.01 0.26 0.12 95 1009.2
20260506033034 46 0 1.7 7.0 0.01 0.26 0.12 95 1009.1
20260506032515 46 341 0.9 7.8 0.00 0.25 0.11 95 1009.1
20260506032017 46 346 2.6 7.8 0.00 0.25 0.11 95 1009.1
20260506031536 46 0 1.7 7.0 0.00 0.25 0.11 95 1009.2
20260506031016 46 328 1.7 7.0 0.00 0.25 0.11 95 1009.1
20260506030514 46 328 0.0 4.3 0.00 0.25 0.11 95 1009.1
20260506030050 46 333 0.0 4.3 0.01 0.25 0.11 95 1009.2
20260506025514 46 333 0.9 7.0 0.01 0.25 0.11 95 1009.3
20260506025017 46 336 1.7 7.0 0.01 0.25 0.11 95 1009.2
20260506024542 46 0 0.9 4.3 0.01 0.25 0.11 95 1009.3
20260506024015 46 326 0.9 5.2 0.01 0.25 0.11 95 1009.4
20260506023515 46 0 0.0 6.1 0.01 0.25 0.11 95 1009.3
20260506023035 46 343 0.9 6.1 0.01 0.25 0.11 95 1009.4
20260506022517 46 0 0.0 7.0 0.01 0.25 0.11 95 1009.4
20260506022017 46 0 0.0 7.0 0.01 0.25 0.11 95 1009.4
20260506021533 46 326 0.9 6.1 0.02 0.25 0.11 95 1009.4
20260506021017 46 332 0.0 5.2 0.02 0.25 0.11 95 1009.4
20260506020517 46 0 0.9 7.0 0.02 0.25 0.11 95 1009.3
20260506020032 46 0 0.0 7.0 0.01 0.24 0.10 95 1009.3
20260506015517 46 328 1.7 5.2 0.01 0.24 0.10 95 1009.3
20260506015015 46 353 0.0 5.2 0.01 0.24 0.10 95 1009.4
20260506014534 46 0 0.0 5.2 0.02 0.24 0.10 95 1009.3
20260506014015 47 0 0.9 5.2 0.02 0.24 0.10 95 1009.4
20260506013515 47 0 0.0 2.6 0.02 0.24 0.10 95 1009.4
20260506013031 47 0 0.0 6.1 0.02 0.24 0.10 95 1009.4
20260506012516 47 322 0.0 6.1 0.03 0.24 0.10 95 1009.4
20260506012015 47 0 0.0 7.8 0.03 0.24 0.10 95 1009.4
20260506011536 47 0 0.0 7.8 0.02 0.23 0.09 95 1009.5
20260506011020 47 342 0.9 6.1 0.02 0.23 0.09 95 1009.4
20260506010515 47 336 0.9 5.2 0.03 0.23 0.09 95 1009.4
20260506010036 47 0 0.9 4.3 0.03 0.23 0.09 95 1009.5
20260506005515 47 26 0.0 4.3 0.03 0.23 0.09 95 1009.5
20260506005015 47 0 0.0 6.1 0.03 0.23 0.09 95 1009.5
20260506004544 47 4 0.9 6.1 0.02 0.22 0.08 95 1009.5
20260506004015 47 344 0.9 6.1 0.03 0.22 0.08 95 1009.5
20260506003515 47 0 0.0 6.1 0.03 0.22 0.08 95 1009.5
20260506003038 47 25 0.0 4.3 0.03 0.22 0.08 95 1009.6
20260506002516 47 0 0.0 7.0 0.02 0.21 0.07 95 1009.6
20260506002019 48 32 0.0 7.0 0.02 0.21 0.07 95 1009.7
20260506001531 48 347 0.9 6.1 0.03 0.21 0.07 95 1009.7
20260506001017 48 0 0.0 5.2 0.03 0.21 0.07 95 1009.7
20260506000517 48 0 0.0 8.7 0.02 0.20 0.06 95 1009.8
20260506000033 48 0 0.9 8.7 0.02 0.20 0.06 95 1009.8
20260505235517 48 0 0.0 5.2 0.03 0.20 0.06 95 1009.8
20260505235016 48 353 0.0 7.0 0.03 0.20 0.06 95 1009.8
20260505234533 48 341 0.0 7.0 0.03 0.20 0.06 95 1009.9
20260505234016 48 321 1.7 6.1 0.02 0.19 0.05 95 1009.9
20260505233518 48 0 0.9 8.7 0.03 0.19 0.05 95 1010.0
20260505233029 48 14 0.0 8.7 0.03 0.19 0.05 95 1009.9
20260505232516 48 60 2.6 8.7 0.03 0.19 0.05 95 1010.0
20260505232017 49 61 0.9 9.6 0.03 0.19 0.05 95 1009.9
20260505231532 49 40 1.7 9.6 0.03 0.18 0.04 95 1009.9
20260505231016 49 33 2.6 9.6 0.03 0.18 0.04 95 1009.9
20260505230519 49 60 0.0 4.3 0.03 0.18 0.04 95 1010.0
20260505230044 49 59 0.0 4.3 0.04 0.18 0.04 95 1010.1
20260505225515 49 74 0.9 6.1 0.03 0.17 0.03 95 1010.1
20260505225020 49 64 0.9 7.8 0.03 0.17 0.03 95 1010.2
20260505224536 49 33 0.0 7.8 0.04 0.17 0.03 95 1010.1
20260505224015 49 0 0.0 6.1 0.04 0.17 0.03 95 1010.2
20260505223514 49 0 0.0 6.1 0.03 0.16 0.02 95 1010.1
20260505223035 49 66 1.7 7.0 0.03 0.16 0.02 95 1010.1
20260505222519 49 73 0.9 7.0 0.04 0.16 0.02 95 1010.1
20260505222015 49 0 0.9 7.0 0.04 0.16 0.02 95 1010.2
20260505221530 49 0 0.9 7.8 0.03 0.15 0.01 95 1010.2
20260505221016 49 0 0.0 7.8 0.04 0.15 0.01 95 1010.2
20260505220514 49 0 1.7 5.2 0.04 0.15 0.01 95 1010.2
20260505220040 49 66 0.0 5.2 0.04 0.14 0.00 95 1010.3
20260505215516 49 0 0.9 6.1 0.04 0.14 0.14 95 1010.3
20260505215017 49 0 0.9 7.0 0.05 0.14 0.14 95 1010.2
20260505214534 49 0 1.7 7.0 0.04 0.13 0.13 95 1010.3
20260505214016 49 2 0.9 4.3 0.04 0.13 0.13 95 1010.3
20260505213520 49 0 0.0 4.3 0.05 0.13 0.13 95 1010.4
20260505213036 49 0 0.0 7.0 0.05 0.13 0.13 95 1010.4
20260505212516 49 0 0.0 7.0 0.05 0.12 0.12 95 1010.4
20260505212016 49 35 0.9 6.1 0.05 0.12 0.12 95 1010.4
20260505211534 49 12 0.0 3.5 0.05 0.12 0.12 95 1010.4
20260505211017 49 0 0.0 6.1 0.05 0.11 0.11 94 1010.4
20260505210518 49 0 0.9 6.1 0.05 0.11 0.11 94 1010.4
20260505210029 49 69 0.0 5.2 0.04 0.10 0.10 94 1010.5
20260505205515 49 0 0.0 6.1 0.04 0.10 0.10 94 1010.6
20260505205015 49 22 0.0 7.0 0.04 0.09 0.09 94 1010.4
20260505204533 49 49 0.0 7.0 0.04 0.09 0.09 94 1010.6
20260505204017 49 68 0.0 6.1 0.03 0.08 0.08 94 1010.5
20260505203514 49 62 0.9 3.5 0.04 0.08 0.08 95 1010.6
20260505203034 49 0 0.0 3.5 0.04 0.08 0.08 95 1010.6
20260505202516 49 32 0.0 4.3 0.04 0.07 0.07 95 1010.5
20260505202015 49 360 0.0 4.3 0.04 0.07 0.07 95 1010.5
20260505201534 49 58 0.0 6.1 0.05 0.07 0.07 95 1010.5
20260505201016 49 0 0.0 6.1 0.04 0.06 0.06 94 1010.4
20260505200516 49 0 0.9 6.1 0.05 0.06 0.06 95 1010.4
20260505200036 49 47 0.9 5.2 0.05 0.06 0.06 94 1010.4
20260505195519 49 0 0.0 4.3 0.05 0.06 0.06 94 1010.3
20260505195014 49 57 0.0 6.1 0.04 0.05 0.05 94 1010.3